ASTRA 4A

Last updated on Thu Nov 21 2024 00:02:41 GMT+0000 (Coordinated Universal Time)

1 32299U 07057A 24325.34007743 .00000034 00000+0 00000+0 0 9993 2 32299 0.0558 81.1240 0003059 151.9694 313.9933 1.00271424 45891
UTC large
Height (km)
Speed (km/s)
/
Latitude / Longitude
Inclination (degrees)
Orbital Period (minutes)
Azimuth
Elevation
Range (km)
Doppler Factor

Next 0 passes for location: London (51.5072 / 0.1276)

Sorry there are no passes over London.